Regional Weather Roundup
Issued by NWS Charleston, SC

Current Version | Previous Version | Text Only | Print | Product List | Glossary Off
Versions: 1 2 3 4 5 6 7 8 9 10 11 12 13 14 15 16 17 18 19 20 21 22 23 24 25 26 27 28 29 30 31 32 33 34 35 36 37 38 39 40 41 42 43 44 45 46 47 48 49 50

000
ASUS42 KCHS 280212
RWRCHS

REGIONAL WEATHER ROUNDUP
NATIONAL WEATHER SERVICE CHARLESTON SC
1000 PM EDT MON APR 27 2015

NOTE: "FAIR" INDICATES FEW OR NO CLOUDS BELOW 12,000 FEET WITH NO
SIGNIFICANT WEATHER AND/OR OBSTRUCTIONS TO VISIBILITY.

NOT ALL STATIONS ARE QUALITY CONTROLLED BY THE NATIONAL
WEATHER SERVICE. USE DATA WITH CAUTION...ESPECIALLY
DEWPOINT OBSERVATIONS.

SCZ027-030-031-034>040-042>050-280300-
...SOUTHEAST SOUTH CAROLINA...

CITY           SKY/WX    TMP DP  RH WIND       PRES   REMARKS
N CHARLESTON   CLOUDY    62  53  72 S3        29.89R
WATERFRONT PRK NOT AVBL
MOUNT PLEASANT FAIR      59  55  88 MISG      29.88R
PINOPOLIS      NOT AVBL
MONCKS CORNER  FAIR      57  54  88 CALM      29.88R
SUMMERVILLE    FAIR      59  57  94 CALM      29.89R
BEAUFORT MCAS  CLOUDY    62  55  77 CALM      29.88R
BEAUFORT ARPT  FAIR      61  54  77 CALM      29.87R
HILTON HEAD IS CLOUDY    63  59  88 S3        29.89R
WALTERBORO     CLOUDY    57  54  88 CALM      29.89R
ALLENDALE      FAIR      61  55  82 CALM      29.88R

...SOUTHERN MIDLANDS AND PEE DEE...

CITY           SKY/WX    TMP DP  RH WIND       PRES   REMARKS
GEORGETOWN     NOT AVBL
KINGSTREE      NOT AVBL
ORANGEBURG     CLOUDY    60  50  69 CALM      29.89R
BARNWELL       FAIR      61  55  82 CALM      29.89R
AIKEN          FAIR      59  52  77 CALM      29.92R
MANNING        FAIR      54  41  62 CALM      29.89R
COLUMBIA       CLOUDY    61  52  72 CALM      29.88R
SUMTER         CLOUDY    59  50  71 SW2       29.88R
FLORENCE       MOCLDY    58  48  69 CALM      29.89R
MYRTLE BEACH   PTCLDY    61  43  51 CALM      29.89R
N MYRTLE BEACH MOCLDY    58  50  75 NW3       29.87R

$$

GAZ063-065-086>088-099>101-113>116-118-119-134>141-150-280300-
...SOUTHEAST GEORGIA...

CITY           SKY/WX    TMP DP  RH WIND       PRES   REMARKS
SAVANNAH ARPT  CLOUDY    64  59  83 S6        29.88R
HUNTER AAF     CLOUDY    64  61  89 SE3       29.86R
FORT STEWART   CLOUDY    64  61  90 CALM      29.86R
STATESBORO       N/A     60  60 100 CALM      29.87R
SYLVANIA       CLOUDY    60  59  97 CALM      29.89R
CLAXTON        FAIR      63  61  94 CALM      29.87R

...CSRA...CENTRAL AND FAR SOUTHEAST GEORGIA...

CITY           SKY/WX    TMP DP  RH WIND       PRES   REMARKS
THOMSON        CLOUDY    62  61  97 CALM      29.93R
AUGUSTA-BUSH   CLOUDY    59  55  87 CALM      29.87R
AUGUSTA-DANIEL CLOUDY    67  51  56 CALM      29.89R
SWAINSBORO     NOT AVBL
VIDALIA        CLOUDY    64  59  82 CALM      29.87R
EASTMAN        FAIR      63  63 100 CALM      29.89R
HAZLEHURST     FAIR      67  60  78 CALM      29.86R
ALMA           CLOUDY    65  62  90 S3        29.86R
WAYCROSS       CLOUDY    67  66  95 CALM      29.87S
JESUP          FAIR      64  64 100 CALM      29.88R
BAXLEY         FAIR      68  63  83 CALM      29.87R
BRUNSWICK      CLOUDY    64  61  88 CALM      29.88R
SAINT SIMONS   CLOUDY    66  61  84 NE3       29.88R

$$

SCZ027-028-034-036>038-045-046-048>050-GAZ119-141-280300-
...LAKE AND SUPPLEMENTAL COASTAL OBSERVATIONS...

STATION/POSITION TIME  TEMP    WIND        PRES    WAVE   SWELL
                       AIR SEA DIR/SP/G            HT/PER HT/PER/DIR
                 (UTC) (F)     (DEG/KT/KT) (MB)    (FT/S) (FT/S/D)
UPR LAKE MARION  NOT AVBL
WINYAH BAY       NOT AVBL
LAKE MURRAY      0100   63        CALM     1010.8R
ACE BASIN NERRS  NOT AVBL
FORT PULASKI     0106   65 71  150/  3/  4 1011.8R
SAPELO ISLAND    0100   65     110/  4     1011.0R

$$

ANZ835-935-AMZ111-154-330-350-352-354-370-450-454-472-280300-
...C-MAN AND BUOY OBSERVATIONS...

STATION/POSITION TIME  TEMP    WIND        PRES    WAVE   SWELL
                       AIR SEA DIR/SP/G            HT/PER HT/PER/DIR
                 (UTC) (F)     (DEG/KT/KT) (MB)    (FT/S) (FT/S/D)
BUOY 41004       0150   66 71  210/  4/  6 1011.8R   3/ 6   2/ 6
BUOY 41008       0150   66 69  110/  4/  6 1012.0R   2/ 6   2/ 60/ 6
FOLLY BEACH CMAN 0200   65     200/  6/  7 1012.1R
CAPERS NEARSHORE 0108   66     220/  8/ 10 1011.5R
FRIPP NEARSHORE  0100   67     190/  8/  8 1011.2R


STATION/POSITION TIME  TEMP    WIND        PRES    WAVE   SWELL
                       AIR SEA DIR/SP/G            HT/PER HT/PER/DIR
                 (UTC) (F)     (DEG/KT/KT) (MB)    (FT/S) (FT/S/D)
5E ST. MARYS GA  0121      70                N/A     2/ 6
FRYING PAN BUOY  0150   67 71  280/ 10/ 14 1011.7R   3/ 8   3/ 90/ 8
BUOY 41025       0150   62 74   20/ 12/ 17 1009.9R   4/ 8   3/ 70/ 8
CAPE LOOKOUT NC  0100   64     320/ 10/ 11 1009.2R
BUOY 41002       0150   66 71  340/ 14/ 16 1010.2R   5/ 6   3/340/ 6
BUOY 41010       0120   75 79  360/ 12/ 14 1010.5R
ST AUGUSTINE FL  0200   68 69   40/  7/  8 1011.9R


$$


USA.gov is the U.S. government's official web portal to all federal, state and local government web resources and services.